STARLINK-32544, 61917

Orbit data source: Space-Track

STARLINK-32544, 61917 is a payload satellite owned by SpaceX/Seattle (US) in LEO that was launched on Mon, 11 Nov 2024 UTC via an FALCON 9 launch vehicle from the Air Force Eastern Test Range (AFETR). Payload-class satellites include a variety of spacecraft equipped with specific instruments for various scientific and technological missions. These include communications satellites like Starlink; space stations such as the ISS; scientific satellites like the Hubble; Earth observation satellites from companies like Planet Labs, Umbra, and HawkEye 360; GPS; miniature CubeSats for education and research; and military/defense satellites.

Loading next visibility...
Identifier
61917, 2024-207F
Orbit
LEO
Country
Flag of USUS
Related business
Manufacturer
SpaceX/Seattle
Mission
Operational Commercial Communications
Bus & Motor
STARLINK V2M, Unknown motor
Mass
730 kg wet, ~700 kg dry
Launch date (UTC)
2024-11-11 (2 years ago)
Launch vehicle
FALCON 9
Launch site
Air Force Eastern Test Range (AFETR)
Object type
Payload
Rocket body
Debris
Shape & HBR
Box + 2 Pan, 17.7 m
Radar Cross Section
33.884 m², Large (>1 m²)

Expand to show TLE details & history
Last TLE update: 1 day ago

TLE from 1 day ago
0 STARLINK-32544
1 61917U 24207F   26206.32834529  .00012226  00000-0  45280-3 0  9996
2 61917  42.9993 224.3019 0001762 264.8995  95.1656 15.27598593 95776
Epoch: 2026-07-25T07:52Z
TLE epoch observation values (Epoch: 2026-07-25T07:52:49.033Z)
Latitude
0.00003°
Longitude
163.05543°
Altitude
482.878 km
Speed
7.626 km/s
True Right ascension
14h 57m 12s
True Declination
0° 00' 00"
Sunlit
Object was in daylight at epoch
Visualization orbit readout
Latitude
Unknown
Longitude
Unknown
Altitude
Unknown
Speed
Unknown
Apparent Right ascension
Unknown
Apparent Declination
Unknown
Sunlit
N/A
Visualization observer readout
Local Sidereal Time
23:12:13
Azimuth
Unknown
Elevation
Unknown
Doppler factor
Unknown
Orbital elements
Apogee altitude
486.148 km
Perigee altitude
483.729 km
Semi-major axis
6,863.076 km
Eccentricity
0.00018
Inclination
42.9993°
RAAN
224.3019°
Arg. of periapsis
264.8995°
True anomaly
95.18571°
Mean anomaly
95.1656°
Eccentric anomaly
95.17565°
Mean motion
3.81738 °/min
Orbital period
94.31 mins
BSTAR
0.0004528
Loading maneuver chart data...
Computing Atmospheric mass density...
Loading historical data...
Loading historical data...
Loading historical data...
Loading historical data...
Loading historical data...
Loading historical data...
Loading historical data...

Documentation

Showing up to 5 results
|